[[{"header":{"parameterUnit":"m.s-1","parameterCategory":1,"la1":30.2991,"la2":30.254,"lo1":-89.0895,"lo2":-89.0444,"dy":0.0017,"dx":0.0017,"nx":28,"ny":28,"refTime":"2024-06-12T21:00:00:Z","depth":0,"parameterNumber":2,"parameterNumberName":"U-component_of_WINDS"},"data":[0,0,0,0,0,0,0,0,0,0,0,0,0,0,0,0,0,0,0,0,0,0,0,0,0,0,0,0,0,0,0,0,0,0,0,0,0,0,0,0,0,0,0,0,0,0,0,0,0,0,0,0,0,0,0,0,0,0,-1.8889,-1.8889,0,-1.8919,-1.8919,-1.892,-1.8836,-1.8833,-1.8831,-1.8828,-1.8859,-1.8862,-1.8865,0,0,0,0,0,0,0,0,0,0,0,0,0,-1.8759,-1.8762,-1.8889,-1.8889,-1.889,-1.8919,-1.8919,-1.892,-1.8836,-1.8833,-1.883,-1.8827,-1.8858,-1.8862,-1.8866,0,0,0,0,0,0,0,0,0,0,0,0,0,-1.8805,-1.8763,-1.8889,-1.8852,-1.8849,-1.8919,-1.8919,-1.892,-1.8837,-1.8833,-1.8829,-1.8826,-1.8857,-1.8861,-1.8866,-1.8973,0,0,-1.8881,-1.8883,0,0,0,0,0,0,0,0,-1.8802,-1.881,-1.8857,-1.8854,-1.8851,-1.887,-1.8884,-1.8938,-1.8838,-1.8842,-1.8828,-1.8824,-1.8866,-1.8869,-1.8884,-1.8975,-1.8976,-1.8881,-1.8884,-1.8886,-1.8888,0,0,0,0,0,0,0,-1.8799,-1.8808,-1.8901,-1.8858,-1.8854,-1.8833,-1.8835,-1.8894,-1.8875,-1.8841,-1.8835,-1.884,-1.8863,-1.8879,-1.8884,-1.8977,-1.8881,-1.8885,-1.8888,-1.889,-1.9157,-1.9161,0,0,0,0,0,0,-1.8801,-1.8806,-1.89,-1.8902,-1.8817,-1.8839,-1.8841,-1.8868,-1.8874,-1.8871,-1.8843,-1.8836,-1.8873,-1.8878,-1.8884,-1.901,-1.8886,-1.8891,-1.8893,-1.9153,-1.9158,-1.9162,0,0,0,0,0,0,-1.8798,-1.881,-1.8899,-1.8852,-1.8862,-1.8845,-1.8875,-1.887,-1.8886,-1.8876,-1.8872,-1.8863,-1.887,-1.8878,-1.8952,-1.901,-1.8893,-1.8897,-1.9148,-1.9154,-1.916,-1.9263,0,0,0,0,0,0,-1.8795,-1.881,-1.8851,-1.8854,-1.8865,-1.8966,-1.8879,-1.8874,-1.8895,-1.8885,-1.8893,-1.8891,-1.8867,-1.8945,-1.8957,-1.9015,-1.8901,-1.9142,-1.9151,-1.9158,-1.9255,-1.9272,-1.9288,0,0,0,0,0,-1.8791,-1.8879,-1.8853,-1.8865,-1.8915,-1.897,-1.8976,-1.8947,-1.89,-1.894,-1.8934,-1.889,-1.9002,-1.8953,-1.8966,-1.9026,-1.9139,-1.9148,-1.9157,-1.9247,-1.9269,-1.9287,0,0,0,0,0,0,-1.8883,-1.8878,-1.885,-1.8942,-1.8957,-1.8955,-1.9006,-1.8971,-1.9,-1.899,-1.8954,-1.8956,-1.9037,-1.9039,-1.8985,-1.913,-1.9062,-1.9074,-1.9126,-1.9147,-1.9163,-1.9161,-1.8905,0,0,0,0,0,-1.8914,-1.8959,-1.8952,-1.9033,-1.9042,-1.9023,-1.9046,-1.9022,-1.9037,-1.9042,-1.9041,-1.9056,-1.9094,-1.912,-1.9155,-1.9254,-1.9255,-1.9302,-1.9318,-1.9332,-1.9343,-1.9395,-1.9416,-1.9193,-1.9193,-1.9193,0,0,-1.8978,-1.8981,-1.9012,-1.9052,-1.9061,-1.9108,-1.9029,-1.9082,-1.9116,-1.905,-1.912,-1.912,-1.9134,-1.9221,-1.926,-1.9225,-1.9405,-1.9344,-1.9355,-1.9359,-1.9407,-1.9428,-1.9447,-1.92,-1.9198,-1.9197,0,0,-1.912,-1.9127,-1.9195,-1.9206,-1.922,-1.9207,-1.9223,-1.9227,-1.9224,-1.9294,-1.9245,-1.9285,-1.9352,-1.9364,-1.9379,-1.9525,-1.9486,-1.9537,-1.9623,-1.9674,-1.9692,-1.9707,-1.9759,-1.9778,-1.9548,-1.9549,-1.9549,0,-1.9198,-1.9267,-1.9235,-1.9291,-1.931,-1.9252,-1.9321,-1.9333,-1.9358,-1.9372,-1.9333,-1.9416,-1.9421,-1.951,-1.9546,-1.956,-1.9577,-1.9536,-1.9692,-1.9707,-1.9721,-1.977,-1.979,-1.9555,-1.9554,-1.9553,-1.9553,0,-1.9362,-1.9411,-1.9464,-1.949,-1.9515,-1.9577,-1.9554,-1.9583,-1.9558,-1.9548,-1.9619,-1.9624,-1.9659,-1.9678,-1.9654,-1.9764,-1.9742,-1.9698,-1.9629,-1.9749,-1.9794,-1.9813,-1.9563,-1.9561,-1.9559,-1.9558,0,0,-1.9563,-1.957,-1.959,-1.9601,-1.9612,-1.9649,-1.9708,-1.9742,-1.9768,-1.9787,-1.9835,-1.9893,-1.9853,-1.987,-1.9846,-1.9891,-2.0006,-1.9842,-1.9842,-1.9872,-2.0127,-2.016,-2.0182,-1.998,-1.9984,-1.9986,-2.0125,0,-1.9702,-1.9805,-1.9777,-1.9879,-1.9923,-1.9869,-1.992,-1.9933,-1.9926,-1.9962,-1.9953,-1.9995,-1.9938,-1.9948,-1.999,-1.9983,-2.0057,-1.9973,-2.0025,-2.0027,-2.0023,-2.0205,-2.024,-2.0371,-2.0143,-2.0146,-2.0148,0,-1.9879,-1.9905,-2.0011,-2.0015,-2.0032,-2.0079,-2.0108,-2.0143,-2.0156,-2.0147,-2.0166,-2.0133,-2.0191,-2.0122,-2.0201,-2.0145,-2.0164,-2.0164,-2.0168,-2.0172,-2.0095,-2.0214,-2.0413,-2.0432,-2.0176,-2.0174,-2.0172,0,-2.0014,-2.0076,-2.0147,-2.0158,-2.0165,-2.0199,-2.0203,-2.0212,-2.0234,-2.0258,-2.0272,-2.0304,-2.0321,-2.0345,-2.0322,-2.0273,-2.0405,-2.0333,-2.0399,-2.04,-2.0429,-2.0428,-2.0634,-2.0442,-2.0442,-2.0441,-2.0441,0,-2.0173,-2.024,-2.0208,-2.0252,-2.0326,-2.0293,-2.0367,-2.0364,-2.0373,-2.0415,-2.037,-2.0411,-2.0377,-2.0414,-2.0396,-2.0464,-2.0472,-2.0467,-2.0461,-2.0471,-2.0472,-2.0483,-2.0474,-2.0447,-2.0446,-2.0445,-2.0444,0,-2.0337,-2.0318,-2.0393,-2.0392,-2.0394,-2.0448,-2.0447,-2.0488,-2.0477,-2.0531,-2.0542,-2.0525,-2.0567,-2.0546,-2.0589,-2.0577,-2.0665,-2.0647,-2.0661,-2.0656,-2.0723,-2.0717,-2.0943,-2.0971,-2.0762,-2.0764,-2.0766,0,-2.0439,-2.049,-2.0495,-2.052,-2.0527,-2.0568,-2.059,-2.056,-2.0585,-2.0603,-2.0641,-2.0679,-2.0708,-2.0777,-2.0768,-2.0801,-2.0783,-2.086,-2.0788,-2.0796,-2.0784,-2.0781,-2.0786,-2.0875,-2.0878,-2.088,-2.0881,0,-2.0623,-2.0611,-2.0644,-2.0675,-2.0703,-2.0725,-2.0744,-2.0767,-2.0737,-2.0767,-2.081,-2.0832,-2.0876,-2.0914,-2.0942,-2.0946,-2.0909,-2.0904,-2.0921,-2.0931,-2.0937,-2.0934,-2.07,-2.0899,-2.0897,-2.0896,-2.0895,-2.0894,-2.0759,-2.0801,-2.0811,-2.085,-2.0861,-2.0879,-2.0917,-2.0911,-2.0945,-2.0979,-2.0959,-2.1008,-2.1019,-2.1053,-2.1062,-2.11,-2.1069,-2.1093,-2.11,-2.1106,-2.1115,-2.0931,-2.1105,-2.1104,-2.1104,-2.1103,-2.1103,0,-2.0939,-2.0943,-2.0979,-2.1007,-2.1037,-2.1,-2.1019,-2.1046,-2.1091,-2.1104,-2.1133,-2.1181,-2.1218,-2.1212,-2.1245,-2.1276,-2.126,-2.1286,-2.1283,-2.1285,-2.1141,-2.1123,-2.1299,-2.1299,-2.1298,-2.1298,-2.1298,-2.1298,-2.1037,-2.1106,-2.1096,-2.1169,-2.1172,-2.1221,-2.1234,-2.1251,-2.1261,-2.1317,-2.1348,-2.1343,-2.1349,-2.1382,-2.1414,-2.1411,-2.1425,-2.1457,-2.1448,-2.1314,-2.1295,-2.1276,-2.1259,-2.1461,-2.1461,-2.1589,-2.159,-2.1591]},{"header":{"parameterUnit":"m.s-1","parameterCategory":1,"la1":30.2991,"la2":30.254,"lo1":-89.0895,"lo2":-89.0444,"dy":0.0017,"dx":0.0017,"nx":28,"ny":28,"refTime":"2024-06-12T21:00:00:Z","depth":0,"parameterNumber":3,"parameterNumberName":"V-component_of_WINDS"},"data":[0,0,0,0,0,0,0,0,0,0,0,0,0,0,0,0,0,0,0,0,0,0,0,0,0,0,0,0,0,0,0,0,0,0,0,0,0,0,0,0,0,0,0,0,0,0,0,0,0,0,0,0,0,0,0,0,0,0,-2.9578,-2.9578,0,-2.9584,-2.9584,-2.9584,-2.9557,-2.9556,-2.9555,-2.9555,-2.956,-2.9561,-2.9562,0,0,0,0,0,0,0,0,0,0,0,0,0,-2.9542,-2.9542,-2.9578,-2.9578,-2.9578,-2.9584,-2.9584,-2.9584,-2.9557,-2.9556,-2.9555,-2.9554,-2.956,-2.9561,-2.9562,0,0,0,0,0,0,0,0,0,0,0,0,0,-2.9554,-2.9543,-2.9578,-2.9565,-2.9564,-2.9584,-2.9584,-2.9584,-2.9557,-2.9556,-2.9555,-2.9554,-2.956,-2.9561,-2.9562,-2.9594,0,0,-2.9566,-2.9567,0,0,0,0,0,0,0,0,-2.9553,-2.9555,-2.9567,-2.9566,-2.9565,-2.9569,-2.9573,-2.9588,-2.9558,-2.956,-2.9555,-2.9553,-2.9564,-2.9565,-2.9569,-2.9595,-2.9595,-2.9566,-2.9567,-2.9568,-2.9568,0,0,0,0,0,0,0,-2.9552,-2.9554,-2.958,-2.9567,-2.9566,-2.9559,-2.9559,-2.9576,-2.9569,-2.956,-2.9558,-2.9559,-2.9563,-2.9567,-2.9569,-2.9595,-2.9566,-2.9568,-2.9568,-2.9569,-2.9646,-2.9647,0,0,0,0,0,0,-2.9553,-2.9554,-2.958,-2.9581,-2.9556,-2.9561,-2.9561,-2.9569,-2.9568,-2.9567,-2.956,-2.9557,-2.9566,-2.9567,-2.9569,-2.9605,-2.9568,-2.9569,-2.957,-2.9645,-2.9646,-2.9648,0,0,0,0,0,0,-2.9552,-2.9556,-2.958,-2.9567,-2.9569,-2.9562,-2.9571,-2.9569,-2.9574,-2.9568,-2.9567,-2.9565,-2.9565,-2.9567,-2.9588,-2.9605,-2.957,-2.9571,-2.9643,-2.9645,-2.9647,-2.9679,0,0,0,0,0,0,-2.9551,-2.9556,-2.9568,-2.9567,-2.957,-2.96,-2.9572,-2.957,-2.9576,-2.9573,-2.9573,-2.9572,-2.9564,-2.9586,-2.9589,-2.9606,-2.9572,-2.9642,-2.9644,-2.9646,-2.9676,-2.9681,-2.9686,0,0,0,0,0,-2.955,-2.9577,-2.9569,-2.9572,-2.9586,-2.9601,-2.9602,-2.9592,-2.9578,-2.959,-2.9586,-2.9572,-2.9603,-2.9588,-2.9592,-2.9609,-2.9641,-2.9644,-2.9646,-2.9674,-2.968,-2.9686,0,0,0,0,0,0,-2.958,-2.9577,-2.9568,-2.9595,-2.9598,-2.9596,-2.9611,-2.96,-2.9607,-2.9604,-2.9591,-2.9592,-2.9615,-2.9614,-2.9598,-2.9639,-2.9619,-2.9623,-2.9639,-2.9645,-2.965,-2.9649,-2.9573,0,0,0,0,0,-2.959,-2.9603,-2.9599,-2.9624,-2.9626,-2.9618,-2.9624,-2.9616,-2.9619,-2.962,-2.9618,-2.9621,-2.9631,-2.9638,-2.9647,-2.9676,-2.9675,-2.969,-2.9695,-2.9699,-2.9702,-2.9715,-2.9721,-2.9657,-2.9657,-2.9657,0,0,-2.9611,-2.961,-2.9619,-2.963,-2.9631,-2.9644,-2.962,-2.9635,-2.9643,-2.9623,-2.9642,-2.9641,-2.9643,-2.9668,-2.9679,-2.9668,-2.9719,-2.9702,-2.9706,-2.9706,-2.9719,-2.9725,-2.973,-2.9659,-2.9658,-2.9658,0,0,-2.9654,-2.9656,-2.9675,-2.9677,-2.968,-2.9674,-2.9679,-2.9678,-2.9677,-2.9696,-2.968,-2.9691,-2.9709,-2.9711,-2.9714,-2.9757,-2.9744,-2.976,-2.9786,-2.9799,-2.9804,-2.9809,-2.9822,-2.9828,-2.9764,-2.9764,-2.9764,0,-2.9679,-2.9698,-2.9687,-2.9703,-2.9707,-2.9689,-2.9708,-2.971,-2.9716,-2.9719,-2.9707,-2.9728,-2.9729,-2.9753,-2.9763,-2.9767,-2.9771,-2.976,-2.9804,-2.9809,-2.9813,-2.9826,-2.9831,-2.9765,-2.9765,-2.9765,-2.9765,0,-2.9727,-2.9741,-2.9756,-2.9761,-2.9768,-2.9785,-2.9777,-2.9784,-2.9776,-2.9771,-2.9791,-2.979,-2.9798,-2.9804,-2.9796,-2.9826,-2.982,-2.9807,-2.9785,-2.9821,-2.9833,-2.9838,-2.9768,-2.9767,-2.9767,-2.9766,0,0,-2.979,-2.9788,-2.9794,-2.9795,-2.9796,-2.9806,-2.9822,-2.983,-2.9836,-2.9841,-2.9853,-2.9868,-2.9856,-2.986,-2.9852,-2.9864,-2.9896,-2.9849,-2.9848,-2.9856,-2.9928,-2.9937,-2.9943,-2.9888,-2.9889,-2.9889,-2.9927,0,-2.9831,-2.9859,-2.9849,-2.9876,-2.9888,-2.987,-2.9884,-2.9886,-2.9882,-2.9891,-2.9887,-2.9897,-2.9881,-2.9882,-2.9894,-2.989,-2.991,-2.9887,-2.9898,-2.9899,-2.9897,-2.9949,-2.9959,-2.9994,-2.9932,-2.9933,-2.9933,0,-2.9883,-2.9889,-2.9917,-2.9915,-2.9919,-2.9932,-2.9937,-2.9946,-2.9948,-2.9944,-2.9948,-2.9937,-2.9952,-2.9932,-2.9952,-2.9936,-2.994,-2.9939,-2.994,-2.994,-2.9917,-2.9949,-3.0006,-3.0011,-2.9941,-2.994,-2.994,0,-2.9924,-2.9939,-2.9957,-2.9959,-2.9957,-2.9966,-2.9966,-2.9966,-2.9971,-2.9976,-2.9979,-2.9986,-2.9989,-2.9994,-2.9985,-2.9972,-3.0006,-2.9985,-3.0002,-3.0003,-3.0009,-3.0009,-3.0066,-3.0015,-3.0014,-3.0014,-3.0014,0,-2.997,-2.9988,-2.9975,-2.9986,-3.0005,-2.9994,-3.0013,-3.0011,-3.0011,-3.0021,-3.0007,-3.0016,-3.0004,-3.0013,-3.0006,-3.0023,-3.0025,-3.0022,-3.0019,-3.0022,-3.0022,-3.0024,-3.002,-3.0016,-3.0015,-3.0015,-3.0015,0,-3.0018,-3.0011,-3.0029,-3.0026,-3.0025,-3.0039,-3.0036,-3.0046,-3.0041,-3.0054,-3.0056,-3.0049,-3.0058,-3.005,-3.0059,-3.0054,-3.0076,-3.0071,-3.0075,-3.0073,-3.009,-3.0088,-3.0149,-3.0156,-3.0101,-3.0102,-3.0102,0,-3.0047,-3.006,-3.0058,-3.0063,-3.0064,-3.0073,-3.0078,-3.0067,-3.0072,-3.0074,-3.0084,-3.0091,-3.0097,-3.0112,-3.0107,-3.0114,-3.0108,-3.0129,-3.0109,-3.0111,-3.0106,-3.0105,-3.0106,-3.0133,-3.0133,-3.0134,-3.0134,0,-3.01,-3.0095,-3.0102,-3.0107,-3.0113,-3.0117,-3.012,-3.0125,-3.0114,-3.012,-3.0129,-3.0134,-3.0142,-3.015,-3.0155,-3.0154,-3.0142,-3.0141,-3.0145,-3.0147,-3.0148,-3.0146,-3.0085,-3.0139,-3.0139,-3.0138,-3.0138,-3.0138,-3.0138,-3.0148,-3.0148,-3.0156,-3.0156,-3.0159,-3.0168,-3.0164,-3.0171,-3.0177,-3.017,-3.0181,-3.0181,-3.0186,-3.0186,-3.0194,-3.0185,-3.0192,-3.0193,-3.0194,-3.0196,-3.0148,-3.0195,-3.0195,-3.0195,-3.0195,-3.0195,0,-3.0188,-3.0187,-3.0194,-3.0198,-3.0204,-3.0192,-3.0194,-3.02,-3.0209,-3.0211,-3.0216,-3.0226,-3.0233,-3.0228,-3.0234,-3.0241,-3.0236,-3.0243,-3.0242,-3.0241,-3.0204,-3.0199,-3.0247,-3.0247,-3.0247,-3.0247,-3.0247,-3.0247,-3.0215,-3.0231,-3.0226,-3.0242,-3.024,-3.025,-3.0252,-3.0254,-3.0255,-3.0266,-3.0271,-3.0268,-3.0267,-3.0273,-3.0278,-3.0277,-3.0279,-3.0288,-3.0284,-3.0249,-3.0244,-3.0239,-3.0235,-3.0289,-3.0289,-3.032,-3.0321,-3.0321]}]]